SCP
0 0 0 0 0 0 0 0 0 0 0 0 0 0 0 0 0 0 0 0 0 0 0 0 0 0 0 0 0 0 0 0 0 0 0 0 0 0 0 0 0 0 0 0
0 0 0 0 0 0 0 0 0 0 0 0 0 0 0 0 0 0 0 0 0 0 0 0 0 0 0 0 0 0 0 0 0 0 0 0 0 0 0 0 0 0 0 0
0 0 0 0 0 0 0 0 0 0 0 0 0 0 0 0 0 0 0 0 0 0 0 0 0 0 0 0 0 0 0 0 0 0 0 0 0 0 0 0 0 0 0 0
0 0 0 0 0 0 0 0 0 0 0 0 0 0 0 0 0 0 0 0 0 0 0 0 0 0 0 0 0 0 0 0 0 0 0 0 0 0 0 0 0 0 0 0
0 0 0 0 0 0 0 0 0 0 0 0 0 0 0 0 0 0 0 0 0 0 0 0 0 0 0 0 0 0 0 0 0 0 0 0 0 0 0 0 0 0 0 0
0 0 0 0 0 0 0 0 0 0 0 0 0 0 0 0 0 0 0 0 0 0 0 0 0 0 0 0 0 0 0 0 0 0 0 0 0 0 0 0 0 0 0 0
0 0 0 0 0 0 0 0 0 0 0 0 0 0 0 0 0 0 0 0 0 0 0 0 0 0 0 0 0 0 0 0 0 0 0 0 0 0 0 0 0 0 0 0
0 0 0 0 0 0 0 0 0 0 0 0 0 0 0 0 0 0 0 0 0 0 0 0 0 0 0 0 0 0 0 0 0 0 0 0 0 0 0 0 0 0 0 0
0 0 0 0 0 0 0 0 0 0 0 0 0 0 0 0 0 0 0 0 0 0 0 0 0 0 0 0 0 0 0 0 0 0 0 0 0 0 0 0 0 0 0 0
0 0 0 0 0 0 0 0 0 0 0 0 0 0 0 0 0 0 0 0 0 0 0 0 0 0 0 0 0 0 0 0 0 0 0 0 0 0 0 0 0 0 0 0
0 0 0 0 0 0 0 0 0 0 0 0 0 0 0 0 0 0 0 0 0 0 0 0 0 0 0 0 0 0 0 0 0 0 0 0 0 0 0 0 0 0 0 0
0 0 0 0 0 0 0 0 0 0 0 0 0 0 0 0 0 0 0 0 0 0 0 0 0 0 0 0 0 0 0 0 0 0 0 0 0 0 0 0 0 0 0 0
0 0 0 0 0 0 0 0 0 0 0 0 0 0 0 0 0 0 0 0 0 0 0 0 0 0 0 0 0 0 0 0 0 0 0 0 0 0 0 0 0 0 0 0
0 0 0 0 0 0 0 0 0 0 0 0 0 0 0 0 0 0 0 0 0 0 0 0 0 0 0 0 0 0 0 0 0 0 0 0 0 0 0 0 0 0 0 0
0 0 0 0 0 0 0 0 0 0 0 0 0 0 0 0 0 0 0 0 0 0 -0 -0 0 0 0 0 0 0 0 0 0 0 0 0 0 0 0 0 0 0 0 0
0 0 0 0 0 0 0 0 0 0 0 0 0 0 0 0 0 0 0 0 0 0 0 0 0 0 0 0 0 0 0 0 0 0 0 0 0 0 0 0 0 0 0 0
0 0 0 0 0 0 0 0 0 0 0 0 0 0 0 0 0 0 0 0 0 0 0 0 0 0 0 -0 0 0 0 0 0 0 0 0 0 0 0 0 0 0 0 0
0 0 0 0 0 0 0 0 0 0 0 0 0 0 0 0 0 0 0 0 0 0 0 0 0 0 0 0 0 0 0 0 0 0 0 0 0 0 0 0 0 0 0 0
0 0 0 0 0 0 0 0 0 0 0 0 0 0 0 0 0 0 0 0 0 0 0 0 0 0 0 0 0 0 0 0 0 0 0 0 0 0 0 0 0 0 0 0
0 0 0 0 0 0 0 0 0 0 0 0 0 0 0 0 0 0 0 0 0 0 0 0 0 0 0 0 0 0 0 0 0 0 0 0 0 0 0 0 0 0 0 0
0 0 0 0 0 0 0 0 0 0 0 0 0 0 0 0 0 0 0 0 0 0 0 0 0 0 0 0 0 0 0 0 0 0 0 0 0 0 0 0 0 0 0 0
0 0 0 0 0 0 0 0 0 0 0 0 0 0 0 0 0 0 0 0 0 0 0 0 0 0 0 0 0 0 0 0 0 0 0 0 0 0 0 0 0 0 0 0
0 0 0 0 0 0 0 0 0 0 0 0 0 0 0 0 0 0 0 0 0 0 0 0 0 0 0 0 0 0 0 0 0 0 0 0 0 0 0 0 0 0 0 0
0 0 0 0 0 0 0 0 0 0 0 0 0 0 0 0 0 0 0 0 0 0 0 0 0 0 0 0 0 0 0 0 0 0 0 0 0 0 0 0 0 0 0 0
0 0 0 0 0 0 0 0 0 0 0 0 0 0 0 0 0 0 0 0 0 0 0 0 0 0 0 0 0 0 0 0 0 0 0 0 0 0 0 0 0 0 0 0
0 0 0 0 0 0 0 0 0 0 0 0 0 0 0 0 0 0 0 0 0 0 0 0 0 0 0 0 0 0 0 0 0 0 0 0 0 0 0 0 0 0 0 0
Wind_Speed_500mb
5 4 6 15 9 7 12 9 10 9 6 8 7 11 9 19 22 21 27 25 22 19 15 16 10 24 23 32 35 37 32 31 29 25 24 22 21 22 22 22 22 26 30 32
5 7 9 5 6 6 7 5 4 5 2 6 11 15 16 13 16 19 20 26 24 22 21 23 18 5 19 26 31 32 29 29 27 24 22 24 22 21 23 28 29 32 32 32
6 7 2 4 11 7 11 6 7 4 13 4 13 6 14 13 24 26 27 26 27 27 25 25 23 17 8 17 25 29 29 27 25 25 27 25 23 22 24 27 32 37 36 34
9 3 3 7 9 11 5 10 7 6 8 5 7 6 11 16 14 23 27 27 26 26 26 26 24 17 18 16 18 24 26 25 25 25 25 23 21 22 24 35 43 45 39 33
2 8 10 10 6 6 4 5 6 3 2 7 3 6 8 21 14 15 21 26 28 28 28 28 26 25 18 11 12 15 18 18 20 21 19 18 19 20 28 35 41 41 37 31
6 2 7 5 8 6 7 2 3 3 3 3 6 6 8 9 8 13 21 25 24 26 26 25 23 20 22 19 14 8 2 6 11 13 15 18 18 23 32 38 41 41 39 36
4 4 5 5 5 6 1 1 3 7 5 8 8 3 14 10 11 24 22 21 21 20 22 22 22 21 18 15 10 6 2 5 10 14 19 22 25 30 36 38 38 38 37 36
6 9 3 10 7 3 3 3 7 8 3 5 6 10 9 14 25 28 25 21 19 20 20 21 22 22 22 20 14 8 6 10 17 23 28 33 39 45 46 45 42 40 40 40
3 3 5 7 4 4 5 2 5 10 2 6 7 8 4 11 10 24 20 15 16 18 18 19 20 21 21 21 22 20 17 16 17 20 25 31 39 44 49 51 49 49 47 47
3 4 2 2 2 7 2 2 6 4 1 8 9 8 10 12 12 7 12 10 14 15 15 15 16 18 17 18 21 24 25 27 30 31 31 32 34 37 41 46 51 53 57 58
4 6 2 2 8 10 2 3 1 4 5 9 5 11 4 14 22 19 18 9 12 12 11 10 11 12 16 20 28 34 36 37 41 43 44 43 42 44 44 45 45 48 52 56
4 2 6 11 7 9 6 4 9 7 10 5 3 15 10 3 35 39 23 14 9 6 4 3 8 14 19 26 34 39 41 43 46 48 50 51 53 53 55 54 51 51 54 53
3 2 5 9 2 3 5 8 2 4 2 10 7 12 6 13 24 27 21 13 9 6 4 5 9 15 23 31 35 39 41 44 46 50 51 51 53 54 56 58 58 57 57 59
2 3 10 9 9 4 6 7 11 9 4 6 22 15 9 14 16 25 24 14 9 10 9 11 16 23 30 34 39 42 43 44 47 49 50 53 55 56 56 56 57 62 64 65
2 8 4 9 11 9 13 12 18 24 25 16 37 30 10 26 25 45 27 17 16 17 19 15 24 33 39 44 45 42 43 44 47 50 51 54 58 61 60 60 60 63 63 65
6 6 1 9 9 8 17 23 26 36 38 35 45 54 11 14 33 30 28 25 24 23 21 20 36 44 47 46 44 46 49 47 50 54 56 58 59 61 63 64 66 69 68 65
10 8 5 10 6 13 18 18 40 16 10 29 28 26 12 8 26 29 26 25 27 32 31 32 50 55 51 48 50 54 54 54 57 61 63 65 66 65 62 63 67 70 69 66
9 6 4 7 5 5 14 8 6 20 20 22 12 7 12 15 14 17 27 32 32 26 31 47 57 60 53 55 55 60 60 62 65 68 69 72 71 72 70 69 70 69 69 69
12 8 3 4 7 17 21 8 10 11 12 24 32 10 21 12 7 28 32 18 16 29 44 47 56 53 53 59 61 64 66 68 70 72 73 74 77 78 79 77 78 79 73 71
5 4 4 4 6 13 1 4 5 7 15 7 15 22 20 25 3 7 9 21 37 41 39 49 52 51 52 58 62 66 68 69 74 73 76 76 80 82 84 84 82 83 78 73
4 7 27 19 12 16 14 21 11 9 7 12 17 19 16 10 21 24 42 49 49 54 52 52 49 54 55 62 69 74 73 76 76 75 79 81 83 82 85 87 84 85 81 69
13 12 8 8 9 19 24 11 12 7 19 19 17 15 16 25 34 41 46 51 52 56 57 61 62 64 72 76 80 82 81 84 79 77 82 84 87 87 87 85 87 80 72 71
6 11 8 20 10 3 38 8 24 11 13 21 20 19 27 32 38 48 57 57 58 64 66 65 71 77 81 83 83 86 89 85 83 81 85 88 93 94 88 85 83 68 62 70
9 15 7 7 18 45 41 39 41 36 35 31 31 40 38 44 51 59 60 64 63 67 64 65 71 79 86 83 86 87 87 84 78 83 88 90 96 99 92 84 74 61 66 69
7 14 10 18 37 48 66 55 37 33 27 31 34 41 54 57 67 63 66 68 69 68 67 67 74 83 85 86 85 82 84 78 80 85 89 95 97 98 93 82 65 57 68 67
31 20 16 21 39 33 30 15 23 28 40 49 52 59 57 58 61 62 64 66 72 74 74 75 79 83 85 86 89 87 83 78 80 87 90 92 96 95 88 79 65 56 57 59
Wind_Direction_500mb
13 70 73 49 15 331 331 5 11 92 34 329 297 336 17 16 41 51 68 65 52 44 18 342 282 225 215 203 205 223 229 221 222 233 245 257 268 275 290 301 309 316 316 316
40 79 46 341 320 335 9 37 20 98 23 347 333 309 69 63 73 66 64 64 55 41 35 22 28 142 196 202 201 212 229 223 223 235 248 249 262 278 301 308 311 313 312 311
85 49 336 337 22 6 47 21 27 352 329 206 305 236 121 104 89 72 57 60 54 45 40 39 53 69 118 184 192 200 222 229 226 233 241 249 259 276 297 300 307 312 314 311
62 58 33 53 85 1 132 355 36 359 13 239 23 254 159 151 127 81 57 55 52 50 43 49 51 83 122 142 169 190 211 223 232 241 249 255 267 290 300 307 312 313 312 307
73 19 41 57 38 328 116 18 41 68 314 32 321 82 212 147 127 88 74 67 62 58 56 54 50 57 76 103 169 191 210 225 238 252 258 260 275 289 305 309 310 307 304 301
100 111 30 53 86 36 116 336 37 222 147 5 234 112 222 186 121 110 89 74 66 62 61 62 66 60 63 69 82 95 171 252 264 263 261 270 281 301 310 315 313 310 306 303
175 77 107 350 181 185 188 19 332 352 359 236 301 345 244 129 92 120 109 85 71 64 58 62 62 61 65 66 62 59 7 299 286 283 279 271 277 292 304 309 310 306 300 297
185 307 33 346 32 105 49 124 149 220 227 290 351 238 268 116 112 111 103 91 75 60 58 55 54 51 51 51 50 38 338 297 286 279 274 272 280 289 295 298 302 304 300 295
88 258 120 42 4 39 197 56 14 94 50 47 217 274 131 144 164 119 94 82 73 66 63 58 54 52 45 38 31 23 12 358 338 321 304 294 291 292 292 290 290 292 294 290
33 311 332 127 236 37 136 129 59 333 56 276 276 271 236 186 220 135 111 85 72 79 75 66 55 45 29 16 8 358 352 345 338 330 324 321 317 312 306 299 295 290 287 287
89 106 322 42 206 178 129 234 338 82 160 197 276 258 306 215 180 151 165 135 90 82 70 52 29 11 358 342 340 338 334 329 323 318 314 311 308 307 306 306 306 303 295 291
89 23 254 213 69 22 359 299 191 144 259 223 166 270 325 189 140 149 159 149 139 116 95 19 342 333 327 327 328 328 327 326 323 319 316 312 309 302 298 299 302 304 304 303
81 293 333 313 23 54 245 205 195 55 7 214 152 258 351 84 131 161 166 172 178 192 227 280 308 322 327 327 326 323 322 318 317 317 315 314 312 313 305 295 293 296 300 302
65 278 189 215 210 170 237 217 199 170 181 221 227 285 226 234 206 196 204 208 215 229 247 285 306 325 328 326 324 318 313 311 312 309 310 309 308 309 310 308 304 297 294 297
116 222 297 236 228 188 218 198 202 212 221 203 265 230 235 207 202 209 220 231 241 246 244 287 323 329 327 324 322 317 314 314 313 311 311 309 308 306 306 308 305 306 299 294
170 263 87 278 246 265 265 225 221 227 233 247 260 273 211 174 197 199 225 233 246 263 262 309 329 326 324 321 322 322 321 319 320 320 319 313 308 308 306 303 304 304 304 299
164 161 142 261 320 317 289 215 215 210 192 220 236 246 163 166 187 203 221 242 271 279 276 293 320 321 318 319 323 323 322 320 320 320 321 323 318 313 308 302 298 300 303 300
178 118 131 267 12 271 252 228 226 230 248 221 265 198 169 170 199 237 260 269 279 284 282 295 308 317 316 318 319 322 321 319 318 318 321 323 319 316 313 308 304 300 300 296
152 172 249 198 219 293 299 149 169 185 280 225 228 149 174 195 235 275 279 270 276 298 303 300 305 306 307 311 319 318 318 317 315 316 317 317 318 314 313 309 305 303 299 292
14 323 166 111 212 239 241 182 122 106 277 345 154 149 172 165 198 224 334 309 304 297 288 294 299 297 304 314 317 312 313 315 315 315 313 313 314 311 309 306 302 298 295 288
124 231 225 226 241 278 243 154 144 97 251 123 135 153 173 199 226 283 293 299 296 297 292 294 293 299 309 319 320 314 312 311 313 310 309 309 309 308 308 303 299 297 290 284
170 173 193 200 231 264 136 119 171 164 155 165 182 201 241 266 278 285 288 290 290 293 292 288 292 297 308 315 315 312 311 315 310 305 304 306 306 307 308 303 300 296 285 284
275 191 200 195 212 289 192 187 215 226 206 228 229 246 277 284 288 294 294 291 290 296 297 291 290 298 307 311 311 309 312 310 307 304 305 305 306 306 308 303 299 291 281 280
255 212 224 37 243 248 248 250 262 257 261 262 266 281 285 290 298 302 303 305 306 309 306 304 298 300 305 309 310 309 308 307 304 304 304 304 305 307 306 302 296 280 274 275
215 142 218 252 271 278 278 280 283 277 277 278 288 295 298 296 302 303 304 306 308 311 310 304 300 302 305 309 308 308 307 305 304 303 302 303 303 305 304 299 289 275 274 273
219 223 230 256 265 268 283 305 305 290 286 288 290 297 293 294 296 298 301 303 306 309 309 306 306 307 308 310 310 311 308 304 302 300 301 300 302 302 300 296 285 271 276 273
Wind_Speed_850mb
5 4 6 15 9 7 12 9 10 9 6 8 7 11 9 19 22 21 27 25 22 19 15 16 10 24 23 32 35 37 32 31 29 25 24 22 21 22 22 22 22 26 30 32
5 7 9 5 6 6 7 5 4 5 2 6 11 15 16 13 16 19 20 26 24 22 21 23 18 5 19 26 31 32 29 29 27 24 22 24 22 21 23 28 29 32 32 32
6 7 2 4 11 7 11 6 7 4 13 4 13 6 14 13 24 26 27 26 27 27 25 25 23 17 8 17 25 29 29 27 25 25 27 25 23 22 24 27 32 37 36 34
9 3 3 7 9 11 5 10 7 6 8 5 7 6 11 16 14 23 27 27 26 26 26 26 24 17 18 16 18 24 26 25 25 25 25 23 21 22 24 35 43 45 39 33
2 8 10 10 6 6 4 5 6 3 2 7 3 6 8 21 14 15 21 26 28 28 28 28 26 25 18 11 12 15 18 18 20 21 19 18 19 20 28 35 41 41 37 31
6 2 7 5 8 6 7 2 3 3 3 3 6 6 8 9 8 13 21 25 24 26 26 25 23 20 22 19 14 8 2 6 11 13 15 18 18 23 32 38 41 41 39 36
4 4 5 5 5 6 1 1 3 7 5 8 8 3 14 10 11 24 22 21 21 20 22 22 22 21 18 15 10 6 2 5 10 14 19 22 25 30 36 38 38 38 37 36
6 9 3 10 7 3 3 3 7 8 3 5 6 10 9 14 25 28 25 21 19 20 20 21 22 22 22 20 14 8 6 10 17 23 28 33 39 45 46 45 42 40 40 40
3 3 5 7 4 4 5 2 5 10 2 6 7 8 4 11 10 24 20 15 16 18 18 19 20 21 21 21 22 20 17 16 17 20 25 31 39 44 49 51 49 49 47 47
3 4 2 2 2 7 2 2 6 4 1 8 9 8 10 12 12 7 12 10 14 15 15 15 16 18 17 18 21 24 25 27 30 31 31 32 34 37 41 46 51 53 57 58
4 6 2 2 8 10 2 3 1 4 5 9 5 11 4 14 22 19 18 9 12 12 11 10 11 12 16 20 28 34 36 37 41 43 44 43 42 44 44 45 45 48 52 56
4 2 6 11 7 9 6 4 9 7 10 5 3 15 10 3 35 39 23 14 9 6 4 3 8 14 19 26 34 39 41 43 46 48 50 51 53 53 55 54 51 51 54 53
3 2 5 9 2 3 5 8 2 4 2 10 7 12 6 13 24 27 21 13 9 6 4 5 9 15 23 31 35 39 41 44 46 50 51 51 53 54 56 58 58 57 57 59
2 3 10 9 9 4 6 7 11 9 4 6 22 15 9 14 16 25 24 14 9 10 9 11 16 23 30 34 39 42 43 44 47 49 50 53 55 56 56 56 57 62 64 65
2 8 4 9 11 9 13 12 18 24 25 16 37 30 10 26 25 45 27 17 16 17 19 15 24 33 39 44 45 42 43 44 47 50 51 54 58 61 60 60 60 63 63 65
6 6 1 9 9 8 17 23 26 36 38 35 45 54 11 14 33 30 28 25 24 23 21 20 36 44 47 46 44 46 49 47 50 54 56 58 59 61 63 64 66 69 68 65
10 8 5 10 6 13 18 18 40 16 10 29 28 26 12 8 26 29 26 25 27 32 31 32 50 55 51 48 50 54 54 54 57 61 63 65 66 65 62 63 67 70 69 66
9 6 4 7 5 5 14 8 6 20 20 22 12 7 12 15 14 17 27 32 32 26 31 47 57 60 53 55 55 60 60 62 65 68 69 72 71 72 70 69 70 69 69 69
12 8 3 4 7 17 21 8 10 11 12 24 32 10 21 12 7 28 32 18 16 29 44 47 56 53 53 59 61 64 66 68 70 72 73 74 77 78 79 77 78 79 73 71
5 4 4 4 6 13 1 4 5 7 15 7 15 22 20 25 3 7 9 21 37 41 39 49 52 51 52 58 62 66 68 69 74 73 76 76 80 82 84 84 82 83 78 73
4 7 27 19 12 16 14 21 11 9 7 12 17 19 16 10 21 24 42 49 49 54 52 52 49 54 55 62 69 74 73 76 76 75 79 81 83 82 85 87 84 85 81 69
13 12 8 8 9 19 24 11 12 7 19 19 17 15 16 25 34 41 46 51 52 56 57 61 62 64 72 76 80 82 81 84 79 77 82 84 87 87 87 85 87 80 72 71
6 11 8 20 10 3 38 8 24 11 13 21 20 19 27 32 38 48 57 57 58 64 66 65 71 77 81 83 83 86 89 85 83 81 85 88 93 94 88 85 83 68 62 70
9 15 7 7 18 45 41 39 41 36 35 31 31 40 38 44 51 59 60 64 63 67 64 65 71 79 86 83 86 87 87 84 78 83 88 90 96 99 92 84 74 61 66 69
7 14 10 18 37 48 66 55 37 33 27 31 34 41 54 57 67 63 66 68 69 68 67 67 74 83 85 86 85 82 84 78 80 85 89 95 97 98 93 82 65 57 68 67
31 20 16 21 39 33 30 15 23 28 40 49 52 59 57 58 61 62 64 66 72 74 74 75 79 83 85 86 89 87 83 78 80 87 90 92 96 95 88 79 65 56 57 59
Wind_Direction_850mb
13 70 73 49 15 331 331 5 11 92 34 329 297 336 17 16 41 51 68 65 52 44 18 342 282 225 215 203 205 223 229 221 222 233 245 257 268 275 290 301 309 316 316 316
40 79 46 341 320 335 9 37 20 98 23 347 333 309 69 63 73 66 64 64 55 41 35 22 28 142 196 202 201 212 229 223 223 235 248 249 262 278 301 308 311 313 312 311
85 49 336 337 22 6 47 21 27 352 329 206 305 236 121 104 89 72 57 60 54 45 40 39 53 69 118 184 192 200 222 229 226 233 241 249 259 276 297 300 307 312 314 311
62 58 33 53 85 1 132 355 36 359 13 239 23 254 159 151 127 81 57 55 52 50 43 49 51 83 122 142 169 190 211 223 232 241 249 255 267 290 300 307 312 313 312 307
73 19 41 57 38 328 116 18 41 68 314 32 321 82 212 147 127 88 74 67 62 58 56 54 50 57 76 103 169 191 210 225 238 252 258 260 275 289 305 309 310 307 304 301
100 111 30 53 86 36 116 336 37 222 147 5 234 112 222 186 121 110 89 74 66 62 61 62 66 60 63 69 82 95 171 252 264 263 261 270 281 301 310 315 313 310 306 303
175 77 107 350 181 185 188 19 332 352 359 236 301 345 244 129 92 120 109 85 71 64 58 62 62 61 65 66 62 59 7 299 286 283 279 271 277 292 304 309 310 306 300 297
185 307 33 346 32 105 49 124 149 220 227 290 351 238 268 116 112 111 103 91 75 60 58 55 54 51 51 51 50 38 338 297 286 279 274 272 280 289 295 298 302 304 300 295
88 258 120 42 4 39 197 56 14 94 50 47 217 274 131 144 164 119 94 82 73 66 63 58 54 52 45 38 31 23 12 358 338 321 304 294 291 292 292 290 290 292 294 290
33 311 332 127 236 37 136 129 59 333 56 276 276 271 236 186 220 135 111 85 72 79 75 66 55 45 29 16 8 358 352 345 338 330 324 321 317 312 306 299 295 290 287 287
89 106 322 42 206 178 129 234 338 82 160 197 276 258 306 215 180 151 165 135 90 82 70 52 29 11 358 342 340 338 334 329 323 318 314 311 308 307 306 306 306 303 295 291
89 23 254 213 69 22 359 299 191 144 259 223 166 270 325 189 140 149 159 149 139 116 95 19 342 333 327 327 328 328 327 326 323 319 316 312 309 302 298 299 302 304 304 303
81 293 333 313 23 54 245 205 195 55 7 214 152 258 351 84 131 161 166 172 178 192 227 280 308 322 327 327 326 323 322 318 317 317 315 314 312 313 305 295 293 296 300 302
65 278 189 215 210 170 237 217 199 170 181 221 227 285 226 234 206 196 204 208 215 229 247 285 306 325 328 326 324 318 313 311 312 309 310 309 308 309 310 308 304 297 294 297
116 222 297 236 228 188 218 198 202 212 221 203 265 230 235 207 202 209 220 231 241 246 244 287 323 329 327 324 322 317 314 314 313 311 311 309 308 306 306 308 305 306 299 294
170 263 87 278 246 265 265 225 221 227 233 247 260 273 211 174 197 199 225 233 246 263 262 309 329 326 324 321 322 322 321 319 320 320 319 313 308 308 306 303 304 304 304 299
164 161 142 261 320 317 289 215 215 210 192 220 236 246 163 166 187 203 221 242 271 279 276 293 320 321 318 319 323 323 322 320 320 320 321 323 318 313 308 302 298 300 303 300
178 118 131 267 12 271 252 228 226 230 248 221 265 198 169 170 199 237 260 269 279 284 282 295 308 317 316 318 319 322 321 319 318 318 321 323 319 316 313 308 304 300 300 296
152 172 249 198 219 293 299 149 169 185 280 225 228 149 174 195 235 275 279 270 276 298 303 300 305 306 307 311 319 318 318 317 315 316 317 317 318 314 313 309 305 303 299 292
14 323 166 111 212 239 241 182 122 106 277 345 154 149 172 165 198 224 334 309 304 297 288 294 299 297 304 314 317 312 313 315 315 315 313 313 314 311 309 306 302 298 295 288
124 231 225 226 241 278 243 154 144 97 251 123 135 153 173 199 226 283 293 299 296 297 292 294 293 299 309 319 320 314 312 311 313 310 309 309 309 308 308 303 299 297 290 284
170 173 193 200 231 264 136 119 171 164 155 165 182 201 241 266 278 285 288 290 290 293 292 288 292 297 308 315 315 312 311 315 310 305 304 306 306 307 308 303 300 296 285 284
275 191 200 195 212 289 192 187 215 226 206 228 229 246 277 284 288 294 294 291 290 296 297 291 290 298 307 311 311 309 312 310 307 304 305 305 306 306 308 303 299 291 281 280
255 212 224 37 243 248 248 250 262 257 261 262 266 281 285 290 298 302 303 305 306 309 306 304 298 300 305 309 310 309 308 307 304 304 304 304 305 307 306 302 296 280 274 275
215 142 218 252 271 278 278 280 283 277 277 278 288 295 298 296 302 303 304 306 308 311 310 304 300 302 305 309 308 308 307 305 304 303 302 303 303 305 304 299 289 275 274 273
219 223 230 256 265 268 283 305 305 290 286 288 290 297 293 294 296 298 301 303 306 309 309 306 306 307 308 310 310 311 308 304 302 300 301 300 302 302 300 296 285 271 276 273